This is the latest recevied weather packets stored in our database for station/object N5PRN. If no packets are shown the sender has not sent any weather packets the latest 1 day(s).
| Time | Temp. | Humidity | Pressure | Rain* | Wind** | Luminosity | Snow |
|---|---|---|---|---|---|---|---|
| 1778048645 | 23.33° C | 95% | 1009.8 hPa | 0 mm | 1.34 m/s, 164° | 0 W/m² | - |
| 1778048340 | 23.33° C | 95% | 1010 hPa | 0 mm | 1.79 m/s, 270° | 0 W/m² | - |
| 1778048037 | 23.33° C | 95% | 1010.1 hPa | 0 mm | 3.13 m/s, 246° | 0 W/m² | - |
| 1778047735 | 23.33° C | 95% | 1010 hPa | 0 mm | 0.45 m/s, 204° | 0 W/m² | - |
| 1778047433 | 23.33° C | 94% | 1010 hPa | 0 mm | 0.89 m/s, 203° | 0 W/m² | - |
| 1778047129 | 23.33° C | 94% | 1010.2 hPa | 0 mm | 0.45 m/s, 215° | 0 W/m² | - |
| 1778046826 | 23.33° C | 94% | 1010 hPa | 0 mm | 1.34 m/s, 212° | 0 W/m² | - |
| 1778046523 | 23.33° C | 94% | 1009.9 hPa | 0 mm | 1.79 m/s, 185° | 0 W/m² | - |
| 1778046220 | 23.33° C | 94% | 1010.1 hPa | 0 mm | 2.24 m/s, 237° | 0 W/m² | - |
| 1778045916 | 23.33° C | 94% | 1010.1 hPa | 0 mm | 1.34 m/s, 201° | 0 W/m² | - |
| 1778045615 | 23.33° C | 94% | 1010.1 hPa | 0 mm | 1.34 m/s, 172° | 0 W/m² | - |
| 1778045313 | 23.89° C | 94% | 1010.1 hPa | 0 mm | 1.79 m/s, 204° | 0 W/m² | - |
| 1778045012 | 23.89° C | 94% | 1009.9 hPa | 0 mm | 2.24 m/s, 138° | 0 W/m² | - |
| 1778044709 | 23.89° C | 94% | 1010.3 hPa | 0 mm | 1.34 m/s, 136° | 0 W/m² | - |
| 1778044405 | 23.89° C | 94% | 1009.8 hPa | 0 mm | 1.34 m/s, 192° | 0 W/m² | - |
| 1778044102 | 23.89° C | 94% | 1010.2 hPa | 0 mm | 0.89 m/s, 196° | 0 W/m² | - |
| 1778043800 | 23.89° C | 94% | 1010 hPa | 0 mm | 1.34 m/s, 180° | 0 W/m² | - |
| 1778043496 | 23.89° C | 95% | 1010 hPa | 0 mm | 2.24 m/s, 189° | 0 W/m² | - |
| 1778043193 | 23.89° C | 95% | 1009.9 hPa | 0 mm | 2.24 m/s, 201° | 0 W/m² | - |
| 1778042890 | 23.89° C | 95% | 1010.2 hPa | 0 mm | 0 m/s | 0 W/m² | - |
| 1778042588 | 23.89° C | 95% | 1009.8 hPa | 0 mm | 0.89 m/s, 194° | 0 W/m² | - |
| 1778042285 | 23.33° C | 95% | 1009.9 hPa | 0 mm | 0.89 m/s, 193° | 0 W/m² | - |
| 1778041982 | 23.33° C | 95% | 1010.1 hPa | 0 mm | 0.89 m/s, 188° | 0 W/m² | - |
| 1778041681 | 23.33° C | 95% | 1010 hPa | 0 mm | 0 m/s | 0 W/m² | - |
| 1778041379 | 23.89° C | 95% | 1010.1 hPa | 0 mm | 0.45 m/s, 193° | 0 W/m² | - |
* Rain latest hour (hover to see other rain measurements)
** Current wind speed in m/s (hover to see current wind gust speed)